| time (UTC) | temp F | wind direction | speed MPH | gust MPH | rain 1hr in | rain 24hr in | rain mn in | humidity % | barometer mb |
| 20260902164526 | 68 | 289 | 0.0 | 7.0 | 0.00 | 0.00 | 0.00 | 48 | 1006.8 |
| 20260902163025 | 69 | 274 | 3.0 | 9.0 | 0.00 | 0.00 | 0.00 | 46 | 1006.7 |
| 20260902161529 | 69 | 274 | 3.0 | 8.0 | 0.00 | 0.00 | 0.00 | 46 | 1006.7 |
| 20260902160023 | 68 | 221 | 2.0 | 10.0 | 0.00 | 0.00 | 0.00 | 55 | 1006.7 |
| 20260902154540 | 68 | 205 | 2.0 | 11.0 | 0.00 | 0.00 | 0.00 | 62 | 1006.7 |
| 20260902153020 | 67 | 200 | 6.0 | 15.0 | 0.00 | 0.00 | 0.00 | 64 | 1006.8 |
| 20260902151531 | 68 | 210 | 7.0 | 14.0 | 0.00 | 0.00 | 0.00 | 62 | 1007.0 |
| 20260902150020 | 68 | 218 | 4.0 | 14.0 | 0.00 | 0.00 | 0.00 | 64 | 1007.1 |
| 20260902144519 | 68 | 200 | 6.0 | 15.0 | 0.00 | 0.00 | 0.00 | 65 | 1007.1 |
| 20260902143018 | 67 | 186 | 9.0 | 16.0 | 0.00 | 0.00 | 0.00 | 68 | 1007.0 |
| 20260902141517 | 68 | 210 | 6.0 | 13.0 | 0.00 | 0.00 | 0.00 | 67 | 1007.2 |
| 20260902140016 | 67 | 216 | 8.0 | 17.0 | 0.00 | 0.00 | 0.00 | 67 | 1007.3 |
| 20260902134516 | 68 | 231 | 5.0 | 19.0 | 0.00 | 0.00 | 0.00 | 66 | 1007.5 |
| 20260902133016 | 68 | 200 | 7.0 | 17.0 | 0.00 | 0.00 | 0.00 | 65 | 1007.4 |
| 20260902131515 | 68 | 215 | 6.0 | 17.0 | 0.00 | 0.00 | 0.00 | 66 | 1007.3 |
| 20260902130028 | 68 | 210 | 5.0 | 15.0 | 0.00 | 0.00 | 0.00 | 63 | 1007.5 |
| 20260902124512 | 68 | 193 | 10.0 | 21.0 | 0.00 | 0.00 | 0.00 | 61 | 1007.3 |
| 20260902123025 | 69 | 224 | 8.0 | 15.0 | 0.00 | 0.00 | 0.00 | 62 | 1007.3 |
| 20260902121509 | 69 | 229 | 6.0 | 14.0 | 0.00 | 0.00 | 0.00 | 63 | 1007.4 |
| 20260902120007 | 68 | 205 | 6.0 | 14.0 | 0.00 | 0.00 | 0.00 | 64 | 1007.4 |
| 20260902114512 | 68 | 221 | 8.0 | 15.0 | 0.00 | 0.00 | 0.00 | 63 | 1007.5 |
| 20260902113005 | 68 | 234 | 6.0 | 17.0 | 0.00 | 0.00 | 0.00 | 64 | 1007.6 |
| 20260902111505 | 68 | 275 | 8.0 | 17.0 | 0.00 | 0.00 | 0.00 | 63 | 1007.8 |
| 20260902110003 | 68 | 205 | 7.0 | 13.0 | 0.00 | 0.00 | 0.00 | 64 | 1007.8 |
| 20260902104503 | 67 | 210 | 4.0 | 12.0 | 0.00 | 0.00 | 0.00 | 65 | 1007.8 |
| 20260902103106 | 66 | 215 | 2.0 | 12.0 | 0.00 | 0.00 | 0.00 | 67 | 1007.9 |
| 20260902101556 | 66 | 237 | 6.0 | 13.0 | 0.00 | 0.00 | 0.00 | 66 | 1008.1 |
| 20260902100055 | 66 | 216 | 5.0 | 12.0 | 0.00 | 0.00 | 0.00 | 67 | 1008.2 |
| 20260902094554 | 66 | 220 | 4.0 | 12.0 | 0.00 | 0.00 | 0.00 | 65 | 1008.3 |
| 20260902093052 | 65 | 229 | 4.0 | 12.0 | 0.00 | 0.00 | 0.00 | 64 | 1008.4 |
| 20260902091555 | 64 | 233 | 4.0 | 10.0 | 0.00 | 0.00 | 0.00 | 63 | 1008.4 |
| 20260902090051 | 64 | 210 | 4.0 | 10.0 | 0.00 | 0.00 | 0.00 | 64 | 1008.4 |
| 20260902084549 | 64 | 200 | 3.0 | 9.0 | 0.00 | 0.00 | 0.00 | 64 | 1008.3 |
| 20260902083047 | 65 | 200 | 3.0 | 12.0 | 0.00 | 0.00 | 0.00 | 65 | 1008.2 |
| 20260902081549 | 64 | 227 | 0.0 | 6.0 | 0.00 | 0.00 | 0.00 | 64 | 1008.1 |
| 20260902080050 | 63 | 298 | 2.0 | 8.0 | 0.00 | 0.00 | 0.00 | 64 | 1007.9 |
| 20260902074542 | 62 | 280 | 1.0 | 6.0 | 0.00 | 0.00 | 0.00 | 66 | 1008.0 |
| 20260902073039 | 61 | 258 | 1.0 | 7.0 | 0.00 | 0.00 | 0.00 | 69 | 1008.0 |
| 20260902071540 | 61 | 237 | 1.0 | 10.0 | 0.00 | 0.00 | 0.00 | 71 | 1007.9 |
| 20260902070032 | 60 | 228 | 0.0 | 0.0 | 0.00 | 0.00 | 0.00 | 74 | 1007.9 |
| 20260902064529 | 59 | 310 | 0.0 | 0.0 | 0.00 | 0.00 | 0.00 | 75 | 1007.8 |
| 20260902063027 | 59 | 274 | 0.0 | 0.0 | 0.00 | 0.00 | 0.00 | 77 | 1007.7 |
| 20260902061524 | 59 | 305 | 0.0 | 0.0 | 0.00 | 0.00 | 0.00 | 78 | 1007.6 |
| 20260902060023 | 58 | 241 | 0.0 | 3.0 | 0.00 | 0.00 | 0.00 | 80 | 1007.4 |
| 20260902054529 | 58 | 239 | 1.0 | 6.0 | 0.00 | 0.00 | 0.00 | 83 | 1007.2 |
| 20260902053019 | 57 | 227 | 0.0 | 3.0 | 0.00 | 0.00 | 0.00 | 87 | 1007.1 |
| 20260902051523 | 55 | 252 | 0.0 | 0.0 | 0.00 | 0.00 | 0.00 | 90 | 1007.1 |
| 20260902050018 | 54 | 249 | 0.0 | 0.0 | 0.00 | 0.00 | 0.00 | 91 | 1006.9 |
| 20260902044517 | 54 | 238 | 0.0 | 5.0 | 0.00 | 0.01 | 0.00 | 92 | 1006.7 |
| 20260902043014 | 55 | 243 | 1.0 | 6.0 | 0.00 | 0.01 | 0.00 | 92 | 1006.7 |
| 20260902041513 | 55 | 210 | 1.0 | 8.0 | 0.00 | 0.01 | 0.00 | 92 | 1006.7 |
| 20260902040014 | 55 | 219 | 1.0 | 8.0 | 0.00 | 0.01 | 0.00 | 92 | 1006.7 |
| 20260902034512 | 56 | 210 | 2.0 | 4.0 | 0.00 | 0.01 | 0.00 | 91 | 1006.7 |
| 20260902033010 | 56 | 224 | 0.0 | 5.0 | 0.00 | 0.01 | 0.00 | 91 | 1006.7 |
| 20260902031509 | 56 | 239 | 2.0 | 6.0 | 0.00 | 0.01 | 0.00 | 91 | 1006.7 |
| 20260902030008 | 56 | 226 | 2.0 | 6.0 | 0.00 | 0.01 | 0.00 | 90 | 1006.7 |
| 20260902024507 | 56 | 230 | 1.0 | 4.0 | 0.00 | 0.01 | 0.00 | 90 | 1006.8 |
| 20260902023015 | 56 | 224 | 0.0 | 7.0 | 0.00 | 0.01 | 0.00 | 89 | 1006.9 |
| 20260902021511 | 57 | 210 | 2.0 | 8.0 | 0.00 | 0.01 | 0.00 | 89 | 1006.9 |
| 20260902020108 | 57 | 233 | 2.0 | 8.0 | 0.00 | 0.01 | 0.00 | 88 | 1006.9 |
| 20260902014502 | 57 | 229 | 0.0 | 6.0 | 0.00 | 0.01 | 0.00 | 87 | 1007.0 |
| 20260902013001 | 57 | 233 | 0.0 | 0.0 | 0.00 | 0.01 | 0.00 | 86 | 1007.2 |
| 20260902011600 | 57 | 220 | 0.0 | 4.0 | 0.00 | 0.01 | 0.00 | 85 | 1007.2 |
| 20260902010101 | 57 | 233 | 1.0 | 8.0 | 0.00 | 0.01 | 0.00 | 85 | 1007.3 |
| 20260902004600 | 57 | 210 | 2.0 | 8.0 | 0.00 | 0.01 | 0.00 | 85 | 1007.4 |
| 20260902003101 | 57 | 227 | 3.0 | 8.0 | 0.00 | 0.01 | 0.00 | 84 | 1007.4 |
| 20260902001558 | 57 | 225 | 4.0 | 10.0 | 0.00 | 0.01 | 0.00 | 85 | 1007.5 |
| 20260902000116 | 57 | 243 | 1.0 | 6.0 | 0.00 | 0.01 | 0.00 | 85 | 1007.6 |
| 20260901234556 | 57 | 242 | 1.0 | 5.0 | 0.00 | 0.01 | 0.00 | 86 | 1007.6 |
| 20260901233052 | 56 | 216 | 3.0 | 9.0 | 0.00 | 0.01 | 0.00 | 89 | 1007.5 |
| 20260901231552 | 56 | 242 | 0.0 | 4.0 | 0.00 | 0.01 | 0.00 | 92 | 1007.4 |
| 20260901230103 | 56 | 221 | 0.0 | 5.0 | 0.00 | 0.01 | 0.00 | 93 | 1007.2 |
| 20260901224548 | 56 | 210 | 0.0 | 3.0 | 0.00 | 0.01 | 0.00 | 94 | 1007.2 |
| 20260901223050 | 55 | 226 | 0.0 | 1.0 | 0.00 | 0.01 | 0.00 | 94 | 1007.2 |
| 20260901221545 | 55 | 233 | 0.0 | 0.0 | 0.00 | 0.01 | 0.00 | 94 | 1007.2 |
| 20260901220110 | 55 | 233 | 0.0 | 0.0 | 0.00 | 0.01 | 0.00 | 93 | 1007.1 |
| 20260901214543 | 56 | 233 | 0.0 | 0.0 | 0.00 | 0.01 | 0.01 | 93 | 1007.1 |
| 20260901213108 | 55 | 233 | 0.0 | 0.0 | 0.00 | 0.01 | 0.01 | 93 | 1007.2 |
| 20260901211541 | 55 | 233 | 0.0 | 0.0 | 0.00 | 0.01 | 0.01 | 93 | 1007.1 |
| 20260901210047 | 56 | 233 | 0.0 | 0.0 | 0.00 | 0.01 | 0.01 | 92 | 1007.1 |
| 20260901204541 | 57 | 233 | 0.0 | 0.0 | 0.00 | 0.01 | 0.01 | 91 | 1007.0 |
| 20260901203056 | 57 | 233 | 0.0 | 0.0 | 0.00 | 0.01 | 0.01 | 91 | 1007.1 |
| 20260901201539 | 58 | 233 | 0.0 | 0.0 | 0.00 | 0.01 | 0.01 | 91 | 1007.1 |
| 20260901200043 | 58 | 233 | 0.0 | 0.0 | 0.00 | 0.01 | 0.01 | 90 | 1007.1 |
| 20260901194542 | 59 | 216 | 0.0 | 0.0 | 0.00 | 0.01 | 0.01 | 89 | 1007.0 |
| 20260901193049 | 60 | 216 | 0.0 | 0.0 | 0.00 | 0.01 | 0.01 | 89 | 1007.1 |
| 20260901191541 | 61 | 216 | 0.0 | 0.0 | 0.00 | 0.01 | 0.01 | 88 | 1007.1 |
| 20260901190037 | 61 | 216 | 0.0 | 0.0 | 0.00 | 0.01 | 0.01 | 89 | 1007.3 |
| 20260901184636 | 61 | 216 | 0.0 | 0.0 | 0.00 | 0.01 | 0.01 | 89 | 1007.4 |
| 20260901183045 | 62 | 214 | 0.0 | 0.0 | 0.00 | 0.01 | 0.01 | 88 | 1007.4 |
| 20260901181535 | 62 | 210 | 1.0 | 5.0 | 0.00 | 0.01 | 0.01 | 87 | 1007.3 |
| 20260901180034 | 63 | 210 | 2.0 | 8.0 | 0.00 | 0.01 | 0.01 | 86 | 1007.4 |
| 20260901174534 | 63 | 274 | 1.0 | 9.0 | 0.00 | 0.01 | 0.01 | 85 | 1007.5 |
| 20260901173048 | 64 | 216 | 4.0 | 9.0 | 0.00 | 0.01 | 0.01 | 83 | 1007.6 |
| 20260901171536 | 64 | 196 | 2.0 | 10.0 | 0.00 | 0.01 | 0.01 | 83 | 1007.6 |
| 20260901170032 | 64 | 210 | 3.0 | 8.0 | 0.00 | 0.01 | 0.01 | 83 | 1007.7 |